,,PA_Meas_PMT16A,,PR_Meas_QMR101_102,,RH_Meas_QMH101,,SR_Meas_QMS101,,TA_Meas_QMH101,,GenWind,,GenWind,
time,status,PA,status,PR,status,RH,status,SR,status,TA,status,DirAvg,status,SpdAvg,
2013-12-25, 00:00:05,VALID,918.923,VALID,0,VALID,96.1541,VALID,0,VALID,19.8198,VALID,142,VALID,0,
2013-12-25, 00:01:05,VALID,918.912,VALID,0,VALID,96.1541,VALID,0,VALID,19.8198,VALID,142,VALID,0,
2013-12-25, 00:02:05,VALID,918.855,VALID,0,VALID,96.177,VALID,0,VALID,19.8198,VALID,142,VALID,0,
2013-12-25, 00:03:05,VALID,918.822,VALID,0,VALID,96.1846,VALID,0,VALID,19.7808,VALID,142,VALID,0,
2013-12-25, 00:04:05,VALID,918.807,VALID,0,VALID,96.1694,VALID,0,VALID,19.7598,VALID,142,VALID,0,
2013-12-25, 00:05:05,VALID,918.8,VALID,0,VALID,96.1694,VALID,0,VALID,19.7598,VALID,142,VALID,0,
2013-12-25, 00:06:05,VALID,918.801,VALID,0,VALID,96.1618,VALID,0,VALID,19.7403,VALID,142,VALID,0,
2013-12-25, 00:07:05,VALID,918.808,VALID,0,VALID,96.1618,VALID,0,VALID,19.7598,VALID,142,VALID,0,
2013-12-25, 00:08:05,VALID,918.794,VALID,0,VALID,96.177,VALID,0,VALID,19.7793,VALID,142,VALID,0,
2013-12-25, 00:09:05,VALID,918.764,VALID,0,VALID,96.1694,VALID,0,VALID,19.8003,VALID,142,VALID,0,
2013-12-25, 00:10:05,VALID,918.784,VALID,0,VALID,96.1694,VALID,0.107441,VALID,19.7793,VALID,142,VALID,0,
2013-12-25, 00:11:05,VALID,918.782,VALID,0,VALID,96.177,VALID,0,VALID,19.7988,VALID,142,VALID,0,
2013-12-25, 00:12:05,VALID,918.78,VALID,0,VALID,96.1694,VALID,0,VALID,19.8393,VALID,142,VALID,0,
2013-12-25, 00:13:05,VALID,918.776,VALID,0,VALID,96.1465,VALID,0,VALID,19.8393,VALID,142,VALID,0,
2013-12-25, 00:14:05,VALID,918.808,VALID,0,VALID,96.1084,VALID,0,VALID,19.8003,VALID,142,VALID,0,
2013-12-25, 00:15:05,VALID,918.83,VALID,0,VALID,96.0779,VALID,0,VALID,19.8198,VALID,142,VALID,0,
2013-12-25, 00:16:05,VALID,918.833,VALID,0,VALID,96.1236,VALID,0,VALID,19.8393,VALID,142,VALID,0,
2013-12-25, 00:17:05,VALID,918.812,VALID,0,VALID,96.1541,VALID,0,VALID,19.8783,VALID,142,VALID,0,
2013-12-25, 00:18:05,VALID,918.832,VALID,0,VALID,96.1618,VALID,0,VALID,19.8783,VALID,142,VALID,0,
2013-12-25, 00:19:05,VALID,918.851,VALID,0,VALID,96.1008,VALID,0,VALID,19.8393,VALID,142,VALID,0,
2013-12-25, 00:20:05,VALID,918.845,VALID,0,VALID,96.0627,VALID,0,VALID,19.8198,VALID,142,VALID,0,
2013-12-25, 00:21:05,VALID,918.832,VALID,0,VALID,96.0474,VALID,0.107441,VALID,19.8183,VALID,142,VALID,0,
2013-12-25, 00:22:05,VALID,918.817,VALID,0,VALID,96.0474,VALID,0,VALID,19.8588,VALID,142,VALID,0,
2013-12-25, 00:23:05,VALID,918.853,VALID,0,VALID,96.0245,VALID,0,VALID,19.8588,VALID,142,VALID,0,
2013-12-25, 00:24:05,VALID,918.862,VALID,0,VALID,95.9864,VALID,0,VALID,19.8978,VALID,142,VALID,0,
2013-12-25, 00:25:05,VALID,918.853,VALID,0,VALID,96.0017,VALID,0,VALID,19.8963,VALID,142,VALID,0,
2013-12-25, 00:26:05,VALID,918.869,VALID,0,VALID,95.7654,VALID,0,VALID,19.8003,VALID,142,VALID,0,
2013-12-25, 00:27:05,VALID,918.873,VALID,0,VALID,95.2622,VALID,0,VALID,19.6833,VALID,142,VALID,0,
2013-12-25, 00:28:05,VALID,918.896,VALID,0,VALID,95.1402,VALID,0,VALID,19.6248,VALID,142,VALID,0,
2013-12-25, 00:29:05,VALID,918.872,VALID,0,VALID,95.2851,VALID,0,VALID,19.6248,VALID,142,VALID,0,
2013-12-25, 00:30:05,VALID,918.907,VALID,0,VALID,95.3537,VALID,0,VALID,19.6053,VALID,142,VALID,0,
2013-12-25, 00:31:05,VALID,918.897,VALID,0,VALID,95.5748,VALID,0,VALID,19.6638,VALID,142,VALID,0,
2013-12-25, 00:32:05,VALID,918.902,VALID,0,VALID,95.7577,VALID,0,VALID,19.7223,VALID,142,VALID,0,
2013-12-25, 00:33:05,VALID,918.905,VALID,0,VALID,95.8721,VALID,0,VALID,19.7613,VALID,142,VALID,0,
2013-12-25, 00:34:05,VALID,918.886,VALID,0,VALID,95.9331,VALID,0,VALID,19.7793,VALID,142,VALID,0,
2013-12-25, 00:35:05,VALID,918.896,VALID,0,VALID,95.9788,VALID,0,VALID,19.8003,VALID,142,VALID,0,
2013-12-25, 00:36:05,VALID,918.885,VALID,0,VALID,95.9407,VALID,0,VALID,19.7598,VALID,142,VALID,0,
2013-12-25, 00:37:05,VALID,918.888,VALID,0,VALID,95.8111,VALID,0,VALID,19.7028,VALID,142,VALID,0,
2013-12-25, 00:38:05,VALID,918.901,VALID,0,VALID,95.7044,VALID,0,VALID,19.6443,VALID,142,VALID,0,
2013-12-25, 00:39:05,VALID,918.878,VALID,0,VALID,95.7958,VALID,0.107441,VALID,19.6833,VALID,142,VALID,0,
2013-12-25, 00:40:05,VALID,918.883,VALID,0,VALID,95.895,VALID,0,VALID,19.7028,VALID,142,VALID,0,
2013-12-25, 00:41:05,VALID,918.907,VALID,0,VALID,95.9941,VALID,0,VALID,19.7418,VALID,142,VALID,0,
2013-12-25, 00:42:05,VALID,918.923,VALID,0,VALID,96.0932,VALID,0,VALID,19.8003,VALID,142,VALID,0,
2013-12-25, 00:43:05,VALID,918.889,VALID,0,VALID,96.1465,VALID,0,VALID,19.8393,VALID,142,VALID,0,
2013-12-25, 00:44:05,VALID,918.924,VALID,0,VALID,96.2075,VALID,0,VALID,19.8798,VALID,142,VALID,0,
2013-12-25, 00:45:05,VALID,918.902,VALID,0,VALID,96.238,VALID,0,VALID,19.8783,VALID,142,VALID,0,
2013-12-25, 00:46:05,VALID,918.928,VALID,0,VALID,96.2228,VALID,0,VALID,19.8588,VALID,142,VALID,0,
2013-12-25, 00:47:05,VALID,918.883,VALID,0,VALID,96.2151,VALID,0,VALID,19.8393,VALID,142,VALID,0,
2013-12-25, 00:48:05,VALID,918.87,VALID,0,VALID,96.1846,VALID,0,VALID,19.8393,VALID,142,VALID,0,
2013-12-25, 00:49:05,VALID,918.868,VALID,0,VALID,96.1313,VALID,0,VALID,19.8393,VALID,142,VALID,0,
2013-12-25, 00:50:05,VALID,918.863,VALID,0,VALID,96.0932,VALID,0,VALID,19.8573,VALID,142,VALID,0,
2013-12-25, 00:51:05,VALID,918.835,VALID,0,VALID,96.0779,VALID,0,VALID,19.9173,VALID,142,VALID,0,
2013-12-25, 00:52:05,VALID,918.835,VALID,0,VALID,96.055,VALID,0,VALID,19.9773,VALID,142,VALID,0,
2013-12-25, 00:53:05,VALID,918.796,VALID,0,VALID,96.0703,VALID,0,VALID,19.9758,VALID,142,VALID,0,
2013-12-25, 00:54:05,VALID,918.775,VALID,0,VALID,96.0779,VALID,0,VALID,20.0163,VALID,142,VALID,0,
2013-12-25, 00:55:05,VALID,918.783,VALID,0,VALID,96.0855,VALID,0,VALID,19.9953,VALID,142,VALID,0,
2013-12-25, 00:56:05,VALID,918.764,VALID,0,VALID,96.0169,VALID,0.107441,VALID,19.9563,VALID,142,VALID,0,
2013-12-25, 00:57:05,VALID,918.724,VALID,0,VALID,95.9254,VALID,0,VALID,19.8783,VALID,142,VALID,0,
2013-12-25, 00:58:05,VALID,918.681,VALID,0,VALID,95.9254,VALID,0,VALID,19.8588,VALID,142,VALID,0,
2013-12-25, 00:59:05,VALID,918.703,VALID,0,VALID,95.9483,VALID,0,VALID,19.8183,VALID,142,VALID,0,
2013-12-25, 01:00:05,VALID,918.704,VALID,0,VALID,96.0245,VALID,0,VALID,19.8783,VALID,142,VALID,0,
2013-12-25, 01:01:05,VALID,918.686,VALID,0,VALID,96.0703,VALID,0.107441,VALID,19.8573,VALID,142,VALID,0,
2013-12-25, 01:02:05,VALID,918.702,VALID,0,VALID,96.0703,VALID,0,VALID,19.8588,VALID,142,VALID,0,
2013-12-25, 01:03:05,VALID,918.697,VALID,0,VALID,96.0474,VALID,0,VALID,19.8393,VALID,142,VALID,0,
2013-12-25, 01:04:05,VALID,918.665,VALID,0,VALID,96.0017,VALID,0,VALID,19.7598,VALID,142,VALID,0,
2013-12-25, 01:05:05,VALID,918.657,VALID,0,VALID,95.9941,VALID,0,VALID,19.6818,VALID,142,VALID,0,
2013-12-25, 01:06:05,VALID,918.667,VALID,0,VALID,95.9636,VALID,0,VALID,19.6443,VALID,142,VALID,0,
2013-12-25, 01:07:05,VALID,918.668,VALID,0,VALID,95.9483,VALID,0,VALID,19.6038,VALID,142,VALID,0,
2013-12-25, 01:08:04,VALID,918.692,VALID,0,VALID,96.0017,VALID,0,VALID,19.6638,VALID,142,VALID,0,
2013-12-25, 01:09:04,VALID,918.642,VALID,0,VALID,96.0779,VALID,0.107441,VALID,19.6833,VALID,142,VALID,0,
2013-12-25, 01:10:04,VALID,918.654,VALID,0,VALID,96.1541,VALID,0,VALID,19.7418,VALID,142,VALID,0,
2013-12-25, 01:11:04,VALID,918.64,VALID,0,VALID,96.2151,VALID,0.107441,VALID,19.7613,VALID,142,VALID,0,
2013-12-25, 01:12:04,VALID,918.677,VALID,0,VALID,96.2609,VALID,0,VALID,19.7808,VALID,142,VALID,0,
2013-12-25, 01:13:04,VALID,918.641,VALID,0,VALID,96.2685,VALID,0,VALID,19.8003,VALID,142,VALID,0,
2013-12-25, 01:14:04,VALID,918.62,VALID,0,VALID,96.2914,VALID,0,VALID,19.8003,VALID,142,VALID,0,
2013-12-25, 01:15:04,VALID,918.608,VALID,0,VALID,96.2914,VALID,0,VALID,19.8198,VALID,142,VALID,0,
2013-12-25, 01:16:04,VALID,918.589,VALID,0,VALID,96.2761,VALID,0,VALID,19.8393,VALID,142,VALID,0,
2013-12-25, 01:17:04,VALID,918.539,VALID,0,VALID,96.2761,VALID,0,VALID,19.8783,VALID,142,VALID,0,
2013-12-25, 01:18:04,VALID,918.546,VALID,0,VALID,96.2685,VALID,0.107441,VALID,19.8978,VALID,142,VALID,0,
2013-12-25, 01:19:04,VALID,918.515,VALID,0,VALID,96.2685,VALID,0,VALID,19.9173,VALID,142,VALID,0,
2013-12-25, 01:20:04,VALID,918.508,VALID,0,VALID,96.238,VALID,0,VALID,19.9383,VALID,142,VALID,0,
2013-12-25, 01:21:04,VALID,918.457,VALID,0,VALID,96.2228,VALID,0,VALID,19.9173,VALID,142,VALID,0,
2013-12-25, 01:22:04,VALID,918.462,VALID,0,VALID,96.1618,VALID,0,VALID,19.9578,VALID,142,VALID,0,
2013-12-25, 01:23:04,VALID,918.449,VALID,0,VALID,96.1236,VALID,0,VALID,19.9368,VALID,142,VALID,0,
2013-12-25, 01:24:04,VALID,918.391,VALID,0,VALID,96.0703,VALID,0,VALID,19.9563,VALID,142,VALID,0,
2013-12-25, 01:25:04,VALID,918.421,VALID,0,VALID,96.0322,VALID,0,VALID,19.9578,VALID,142,VALID,0,
2013-12-25, 01:26:04,VALID,918.4,VALID,0,VALID,96.0017,VALID,0,VALID,19.9563,VALID,142,VALID,0,
2013-12-25, 01:27:04,VALID,918.359,VALID,0,VALID,95.9102,VALID,0,VALID,19.9368,VALID,142,VALID,0,
2013-12-25, 01:28:04,VALID,918.331,VALID,0,VALID,95.834,VALID,0,VALID,19.8978,VALID,142,VALID,0,
2013-12-25, 01:29:04,VALID,918.325,VALID,0,VALID,95.7501,VALID,0,VALID,19.8783,VALID,142,VALID,0,
2013-12-25, 01:30:04,VALID,918.285,VALID,0,VALID,95.712,VALID,0,VALID,19.9188,VALID,142,VALID,0,
2013-12-25, 01:31:04,VALID,918.25,VALID,0,VALID,95.712,VALID,0,VALID,19.8783,VALID,146,VALID,0,
2013-12-25, 01:32:04,VALID,918.257,VALID,0,VALID,95.712,VALID,0,VALID,19.8378,VALID,146,VALID,0,
2013-12-25, 01:33:04,VALID,918.276,VALID,0,VALID,95.6967,VALID,0,VALID,19.8198,VALID,146,VALID,0,
2013-12-25, 01:34:04,VALID,918.256,VALID,0,VALID,95.7044,VALID,0,VALID,19.8003,VALID,146,VALID,0,
2013-12-25, 01:35:04,VALID,918.245,VALID,0,VALID,95.7349,VALID,0,VALID,19.7403,VALID,146,VALID,0,
2013-12-25, 01:36:04,VALID,918.221,VALID,0,VALID,95.7806,VALID,0,VALID,19.7418,VALID,146,VALID,0,
2013-12-25, 01:37:04,VALID,918.223,VALID,0,VALID,95.834,VALID,0,VALID,19.7418,VALID,146,VALID,0,
2013-12-25, 01:38:04,VALID,918.227,VALID,0,VALID,95.8797,VALID,0,VALID,19.7028,VALID,146,VALID,0,
2013-12-25, 01:39:04,VALID,918.186,VALID,0,VALID,95.9178,VALID,0,VALID,19.7223,VALID,146,VALID,0,
2013-12-25, 01:40:04,VALID,918.181,VALID,0,VALID,95.9331,VALID,0,VALID,19.7028,VALID,146,VALID,0,
2013-12-25, 01:41:04,VALID,918.18,VALID,0,VALID,95.9559,VALID,0,VALID,19.6833,VALID,146,VALID,0,
2013-12-25, 01:42:04,VALID,918.132,VALID,0,VALID,95.9788,VALID,0,VALID,19.6638,VALID,146,VALID,0,
2013-12-25, 01:43:04,VALID,918.129,VALID,0,VALID,96.0017,VALID,0,VALID,19.6848,VALID,146,VALID,0,
2013-12-25, 01:44:04,VALID,918.161,VALID,0,VALID,96.0093,VALID,0,VALID,19.6638,VALID,146,VALID,0,
2013-12-25, 01:45:04,VALID,918.133,VALID,0,VALID,96.0398,VALID,0,VALID,19.6638,VALID,146,VALID,0,
2013-12-25, 01:46:04,VALID,918.121,VALID,0,VALID,96.055,VALID,0,VALID,19.6443,VALID,146,VALID,0,
2013-12-25, 01:47:04,VALID,918.122,VALID,0,VALID,96.055,VALID,0,VALID,19.6248,VALID,146,VALID,0,
2013-12-25, 01:48:04,VALID,918.117,VALID,0,VALID,96.055,VALID,0,VALID,19.6638,VALID,151,VALID,0,
2013-12-25, 01:49:04,VALID,918.115,VALID,0,VALID,96.116,VALID,0,VALID,19.6443,VALID,157,VALID,0,
2013-12-25, 01:50:04,VALID,918.1,VALID,0,VALID,96.1084,VALID,0,VALID,19.6638,VALID,157,VALID,0,
2013-12-25, 01:51:04,VALID,918.101,VALID,0,VALID,96.116,VALID,0,VALID,19.6653,VALID,157,VALID,0,
2013-12-25, 01:52:04,VALID,918.058,VALID,0,VALID,96.1541,VALID,0,VALID,19.6443,VALID,157,VALID,0,
2013-12-25, 01:53:04,VALID,918.045,VALID,0,VALID,96.1618,VALID,0,VALID,19.6443,VALID,157,VALID,0,
2013-12-25, 01:54:04,VALID,918.069,VALID,0,VALID,96.177,VALID,0,VALID,19.6443,VALID,157,VALID,0,
2013-12-25, 01:55:04,VALID,918.033,VALID,0,VALID,96.1923,VALID,0,VALID,19.6443,VALID,157,VALID,0,
2013-12-25, 01:56:04,VALID,918.05,VALID,0,VALID,96.238,VALID,0,VALID,19.6053,VALID,157,VALID,0,
2013-12-25, 01:57:04,VALID,918.009,VALID,0,VALID,96.238,VALID,0,VALID,19.5858,VALID,165,VALID,0,
2013-12-25, 01:58:04,VALID,918.004,VALID,0,VALID,96.2609,VALID,0,VALID,19.5663,VALID,172,VALID,0,
2013-12-25, 01:59:04,VALID,917.988,VALID,0,VALID,96.299,VALID,0,VALID,19.5873,VALID,172,VALID,0,
2013-12-25, 02:00:04,VALID,917.992,VALID,0,VALID,96.3142,VALID,0,VALID,19.6068,VALID,172,VALID,0,
2013-12-25, 02:01:04,VALID,917.981,VALID,0,VALID,96.36,VALID,0,VALID,19.6053,VALID,159,VALID,0,
2013-12-25, 02:02:04,VALID,917.968,VALID,0,VALID,96.3752,VALID,0,VALID,19.6248,VALID,159,VALID,0,
2013-12-25, 02:03:04,VALID,917.977,VALID,0,VALID,96.421,VALID,0,VALID,19.6653,VALID,160,VALID,0,
2013-12-25, 02:04:04,VALID,917.949,VALID,0,VALID,96.4362,VALID,0,VALID,19.6833,VALID,160,VALID,0,
2013-12-25, 02:05:04,VALID,917.956,VALID,0,VALID,96.4286,VALID,0,VALID,19.7433,VALID,160,VALID,0,
2013-12-25, 02:06:04,VALID,917.924,VALID,0,VALID,96.4515,VALID,0,VALID,19.7418,VALID,160,VALID,0,
2013-12-25, 02:07:04,VALID,917.924,VALID,0,VALID,96.4667,VALID,0,VALID,19.7628,VALID,160,VALID,0,
2013-12-25, 02:08:04,VALID,917.916,VALID,0,VALID,96.4743,VALID,0,VALID,19.7808,VALID,160,VALID,0,
2013-12-25, 02:09:04,VALID,917.916,VALID,0,VALID,96.4591,VALID,0,VALID,19.8003,VALID,160,VALID,0,
2013-12-25, 02:10:04,VALID,917.914,VALID,0,VALID,96.4438,VALID,0,VALID,19.8198,VALID,160,VALID,0,
2013-12-25, 02:11:04,VALID,917.929,VALID,0,VALID,96.4362,VALID,0,VALID,19.8198,VALID,160,VALID,0,
2013-12-25, 02:12:04,VALID,917.915,VALID,0,VALID,96.3981,VALID,0,VALID,19.7613,VALID,160,VALID,0,
2013-12-25, 02:13:04,VALID,917.921,VALID,0,VALID,96.3447,VALID,0.107441,VALID,19.7613,VALID,160,VALID,0,
2013-12-25, 02:14:04,VALID,917.882,VALID,0,VALID,96.3219,VALID,0,VALID,19.7418,VALID,160,VALID,0,
2013-12-25, 02:15:04,VALID,917.885,VALID,0,VALID,96.3295,VALID,0,VALID,19.7418,VALID,160,VALID,0,
2013-12-25, 02:16:04,VALID,917.851,VALID,0,VALID,96.3524,VALID,0,VALID,19.7403,VALID,160,VALID,0,
2013-12-25, 02:17:04,VALID,917.822,VALID,0,VALID,96.3447,VALID,0,VALID,19.8018,VALID,160,VALID,0,
2013-12-25, 02:18:04,VALID,917.806,VALID,0,VALID,96.3219,VALID,0,VALID,19.7808,VALID,160,VALID,0,
2013-12-25, 02:19:04,VALID,917.8,VALID,0,VALID,96.2837,VALID,0,VALID,19.8198,VALID,160,VALID,0,
2013-12-25, 02:20:04,VALID,917.796,VALID,0,VALID,96.2837,VALID,0,VALID,19.8393,VALID,168,VALID,0,
2013-12-25, 02:21:04,VALID,917.761,VALID,0,VALID,96.2533,VALID,0,VALID,19.8588,VALID,167,VALID,0,
2013-12-25, 02:22:04,VALID,917.796,VALID,0,VALID,96.2075,VALID,0,VALID,19.8783,VALID,162,VALID,0,
2013-12-25, 02:23:04,VALID,917.78,VALID,0,VALID,96.177,VALID,0,VALID,19.8588,VALID,157,VALID,0,
2013-12-25, 02:24:04,VALID,917.787,VALID,0,VALID,96.1084,VALID,0,VALID,19.8198,VALID,148,VALID,0.0785156,
2013-12-25, 02:25:04,VALID,917.779,VALID,0,VALID,96.0627,VALID,0,VALID,19.7823,VALID,142,VALID,0,
2013-12-25, 02:26:04,VALID,917.822,VALID,0,VALID,96.0398,VALID,0,VALID,19.7223,VALID,142,VALID,0,
2013-12-25, 02:27:04,VALID,917.8,VALID,0,VALID,96.0398,VALID,0,VALID,19.7223,VALID,142,VALID,0,
2013-12-25, 02:28:04,VALID,917.855,VALID,0,VALID,96.0627,VALID,0,VALID,19.7013,VALID,142,VALID,0,
2013-12-25, 02:29:04,VALID,917.824,VALID,0,VALID,96.0932,VALID,0,VALID,19.7013,VALID,142,VALID,0.059375,
2013-12-25, 02:30:04,VALID,917.828,VALID,0,VALID,96.1008,VALID,0,VALID,19.7028,VALID,142,VALID,0,
2013-12-25, 02:31:04,VALID,917.83,VALID,0,VALID,96.1389,VALID,0,VALID,19.7028,VALID,142,VALID,0,
2013-12-25, 02:32:04,VALID,917.83,VALID,0,VALID,96.1694,VALID,0,VALID,19.7028,VALID,141,VALID,0,
2013-12-25, 02:33:04,VALID,917.826,VALID,0,VALID,96.177,VALID,0,VALID,19.6833,VALID,141,VALID,0,
2013-12-25, 02:34:04,VALID,917.814,VALID,0,VALID,96.2075,VALID,0,VALID,19.6833,VALID,141,VALID,0,
2013-12-25, 02:35:04,VALID,917.752,VALID,0,VALID,96.2609,VALID,0,VALID,19.6833,VALID,141,VALID,0,
2013-12-25, 02:36:04,VALID,917.733,VALID,0,VALID,96.2761,VALID,0,VALID,19.6833,VALID,141,VALID,0,
2013-12-25, 02:37:04,VALID,917.738,VALID,0,VALID,96.2837,VALID,0,VALID,19.6833,VALID,141,VALID,0,
2013-12-25, 02:38:04,VALID,917.713,VALID,0,VALID,96.3066,VALID,0,VALID,19.6833,VALID,141,VALID,0,
2013-12-25, 02:39:04,VALID,917.664,VALID,0,VALID,96.3219,VALID,0,VALID,19.7223,VALID,141,VALID,0,
2013-12-25, 02:40:04,VALID,917.674,VALID,0,VALID,96.3142,VALID,0,VALID,19.7418,VALID,141,VALID,0,
2013-12-25, 02:41:04,VALID,917.705,VALID,0,VALID,96.3142,VALID,0,VALID,19.7628,VALID,141,VALID,0,
2013-12-25, 02:42:04,VALID,917.657,VALID,0,VALID,96.3295,VALID,0,VALID,19.7613,VALID,141,VALID,0,
2013-12-25, 02:43:04,VALID,917.662,VALID,0,VALID,96.299,VALID,0.107441,VALID,19.7418,VALID,141,VALID,0,
2013-12-25, 02:44:04,VALID,917.665,VALID,0,VALID,96.2914,VALID,0,VALID,19.7628,VALID,141,VALID,0,
2013-12-25, 02:45:04,VALID,917.685,VALID,0,VALID,96.238,VALID,0,VALID,19.7418,VALID,141,VALID,0,
2013-12-25, 02:46:04,VALID,917.648,VALID,0,VALID,96.2151,VALID,0,VALID,19.7013,VALID,141,VALID,0,
2013-12-25, 02:47:04,VALID,917.65,VALID,0,VALID,96.1923,VALID,0,VALID,19.7238,VALID,141,VALID,0,
2013-12-25, 02:48:04,VALID,917.674,VALID,0,VALID,96.1389,VALID,0,VALID,19.7043,VALID,141,VALID,0,
2013-12-25, 02:49:04,VALID,917.64,VALID,0,VALID,96.1694,VALID,0,VALID,19.6638,VALID,141,VALID,0,
2013-12-25, 02:50:04,VALID,917.64,VALID,0,VALID,96.177,VALID,0,VALID,19.6638,VALID,141,VALID,0,
2013-12-25, 02:51:04,VALID,917.64,VALID,0,VALID,96.1846,VALID,0,VALID,19.6443,VALID,141,VALID,0,
2013-12-25, 02:52:04,VALID,917.608,VALID,0,VALID,96.2075,VALID,0,VALID,19.6248,VALID,141,VALID,0,
2013-12-25, 02:53:04,VALID,917.614,VALID,0,VALID,96.2304,VALID,0,VALID,19.6458,VALID,141,VALID,0,
2013-12-25, 02:54:04,VALID,917.586,VALID,0,VALID,96.2456,VALID,0,VALID,19.6053,VALID,141,VALID,0,
2013-12-25, 02:55:04,VALID,917.571,VALID,0,VALID,96.2456,VALID,0,VALID,19.6068,VALID,141,VALID,0,
2013-12-25, 02:56:04,VALID,917.553,VALID,0,VALID,96.2685,VALID,0,VALID,19.5873,VALID,141,VALID,0,
2013-12-25, 02:57:04,VALID,917.527,VALID,0,VALID,96.2914,VALID,0,VALID,19.5663,VALID,141,VALID,0,
2013-12-25, 02:58:04,VALID,917.514,VALID,0,VALID,96.299,VALID,0,VALID,19.5663,VALID,141,VALID,0,
2013-12-25, 02:59:04,VALID,917.454,VALID,0,VALID,96.3219,VALID,0,VALID,19.5663,VALID,124,VALID,0.1625,
2013-12-25, 03:00:04,VALID,917.45,VALID,0,VALID,96.3371,VALID,0,VALID,19.5663,VALID,124,VALID,0.0941406,
2013-12-25, 03:01:04,VALID,917.421,VALID,0,VALID,96.3676,VALID,0,VALID,19.5663,VALID,124,VALID,0,
2013-12-25, 03:02:04,VALID,917.386,VALID,0,VALID,96.3829,VALID,0.107441,VALID,19.5858,VALID,124,VALID,0,
2013-12-25, 03:03:04,VALID,917.353,VALID,0,VALID,96.4133,VALID,0,VALID,19.6068,VALID,126,VALID,0,
2013-12-25, 03:04:04,VALID,917.321,VALID,0,VALID,96.4133,VALID,0,VALID,19.6053,VALID,126,VALID,0,
2013-12-25, 03:05:04,VALID,917.327,VALID,0,VALID,96.4286,VALID,0,VALID,19.6053,VALID,127,VALID,0,
2013-12-25, 03:06:04,VALID,917.31,VALID,0,VALID,96.4286,VALID,0,VALID,19.5858,VALID,128,VALID,0,
2013-12-25, 03:07:04,VALID,917.294,VALID,0,VALID,96.4286,VALID,0,VALID,19.6248,VALID,136,VALID,0.133203,
2013-12-25, 03:08:04,VALID,917.294,VALID,0,VALID,96.4133,VALID,0.107441,VALID,19.6233,VALID,142,VALID,0,
2013-12-25, 03:09:04,VALID,917.265,VALID,0,VALID,96.3905,VALID,0,VALID,19.6848,VALID,132,VALID,0,
2013-12-25, 03:10:04,VALID,917.278,VALID,0,VALID,96.3752,VALID,0,VALID,19.6833,VALID,139,VALID,0,
2013-12-25, 03:11:04,VALID,917.263,VALID,0,VALID,96.3447,VALID,0,VALID,19.6833,VALID,144,VALID,0.000390625,
2013-12-25, 03:12:04,VALID,917.246,VALID,0,VALID,96.2761,VALID,0,VALID,19.6443,VALID,134,VALID,0,
2013-12-25, 03:13:04,VALID,917.212,VALID,0,VALID,96.2685,VALID,0,VALID,19.5858,VALID,131,VALID,0.152344,
2013-12-25, 03:14:04,VALID,917.249,VALID,0,VALID,96.238,VALID,0,VALID,19.5468,VALID,133,VALID,0,
2013-12-25, 03:15:04,VALID,917.249,VALID,0,VALID,96.2609,VALID,0,VALID,19.5273,VALID,128,VALID,0,
2013-12-25, 03:16:04,VALID,917.235,VALID,0,VALID,96.2609,VALID,0.107441,VALID,19.5078,VALID,127,VALID,0,
2013-12-25, 03:17:04,VALID,917.248,VALID,0,VALID,96.2914,VALID,0.107441,VALID,19.5078,VALID,138,VALID,0.0695312,
2013-12-25, 03:18:04,VALID,917.245,VALID,0,VALID,96.2914,VALID,0.107441,VALID,19.5273,VALID,141,VALID,0,
2013-12-25, 03:19:04,VALID,917.193,VALID,0,VALID,96.2761,VALID,0,VALID,19.5468,VALID,148,VALID,0,
2013-12-25, 03:20:04,VALID,917.207,VALID,0,VALID,96.2456,VALID,0,VALID,19.5663,VALID,136,VALID,0.00195313,
2013-12-25, 03:21:04,VALID,917.167,VALID,0,VALID,96.2304,VALID,0,VALID,19.5858,VALID,137,VALID,0.489453,
2013-12-25, 03:22:04,VALID,917.165,VALID,0,VALID,96.177,VALID,0.107441,VALID,19.6053,VALID,134,VALID,0,
2013-12-25, 03:23:04,VALID,917.186,VALID,0,VALID,96.0932,VALID,0,VALID,19.6248,VALID,135,VALID,0.294141,
2013-12-25, 03:24:04,VALID,917.184,VALID,0,VALID,96.0169,VALID,0,VALID,19.6443,VALID,144,VALID,0.475781,
2013-12-25, 03:25:04,VALID,917.184,VALID,0,VALID,95.895,VALID,0.107441,VALID,19.6833,VALID,119,VALID,0.347266,
2013-12-25, 03:26:04,VALID,917.16,VALID,0,VALID,95.7654,VALID,0,VALID,19.7043,VALID,166,VALID,0,
2013-12-25, 03:27:04,VALID,917.173,VALID,0,VALID,95.6129,VALID,0,VALID,19.6833,VALID,153,VALID,0,
2013-12-25, 03:28:04,VALID,917.127,VALID,0,VALID,95.4909,VALID,0.107441,VALID,19.7028,VALID,146,VALID,0,
2013-12-25, 03:29:04,VALID,917.125,VALID,0,VALID,95.3689,VALID,0.107441,VALID,19.7028,VALID,146,VALID,0,
2013-12-25, 03:30:04,VALID,917.078,VALID,0,VALID,95.2546,VALID,0.107441,VALID,19.6818,VALID,145,VALID,0,
2013-12-25, 03:31:04,VALID,917.045,VALID,0,VALID,95.1479,VALID,0.107441,VALID,19.6833,VALID,140,VALID,0.00976563,
2013-12-25, 03:32:04,VALID,917.042,VALID,0,VALID,95.0335,VALID,0,VALID,19.6443,VALID,136,VALID,0,
2013-12-25, 03:33:04,VALID,917.001,VALID,0,VALID,94.9649,VALID,0,VALID,19.6248,VALID,135,VALID,0,
2013-12-25, 03:34:04,VALID,916.986,VALID,0,VALID,94.9115,VALID,0.107441,VALID,19.5858,VALID,118,VALID,0.525,
2013-12-25, 03:35:04,VALID,916.953,VALID,0,VALID,94.8505,VALID,0.107441,VALID,19.5858,VALID,94,VALID,0.434766,
2013-12-25, 03:36:04,VALID,916.988,VALID,0,VALID,94.7514,VALID,0,VALID,19.5663,VALID,98,VALID,0.419922,
2013-12-25, 03:37:04,VALID,916.953,VALID,0,VALID,94.7667,VALID,0,VALID,19.5273,VALID,118,VALID,0.577734,
2013-12-25, 03:38:04,VALID,916.97,VALID,0,VALID,94.7972,VALID,0,VALID,19.5273,VALID,131,VALID,0.764453,
2013-12-25, 03:39:04,VALID,916.978,VALID,0,VALID,94.8505,VALID,0.107441,VALID,19.5273,VALID,125,VALID,0.785547,
2013-12-25, 03:40:04,VALID,916.958,VALID,0,VALID,94.9192,VALID,0,VALID,19.5273,VALID,126,VALID,0.439453,
2013-12-25, 03:41:04,VALID,916.956,VALID,0,VALID,94.9573,VALID,0,VALID,19.5663,VALID,126,VALID,0.866797,
2013-12-25, 03:42:04,VALID,916.968,VALID,0,VALID,94.9115,VALID,0,VALID,19.5663,VALID,134,VALID,0.408594,
2013-12-25, 03:43:04,VALID,916.955,VALID,0,VALID,94.9039,VALID,0,VALID,19.5663,VALID,143,VALID,0.285547,
2013-12-25, 03:44:04,VALID,916.982,VALID,0,VALID,94.881,VALID,0.107441,VALID,19.5648,VALID,141,VALID,0.610547,
2013-12-25, 03:45:04,VALID,916.963,VALID,0,VALID,94.8734,VALID,0,VALID,19.5858,VALID,146,VALID,0.290234,
2013-12-25, 03:46:04,VALID,916.998,VALID,0,VALID,94.7438,VALID,0.107441,VALID,19.6053,VALID,165,VALID,0.38125,
2013-12-25, 03:47:04,VALID,917.024,VALID,0,VALID,94.7667,VALID,0.107441,VALID,19.6053,VALID,188,VALID,0.335547,
2013-12-25, 03:48:04,VALID,917.05,VALID,0,VALID,94.82,VALID,0.107441,VALID,19.6248,VALID,169,VALID,0.648438,
2013-12-25, 03:49:04,VALID,917.072,VALID,0,VALID,94.7896,VALID,0,VALID,19.6053,VALID,172,VALID,0,
2013-12-25, 03:50:04,VALID,917.085,VALID,0,VALID,94.8505,VALID,0.107441,VALID,19.6053,VALID,170,VALID,0,
2013-12-25, 03:51:04,VALID,917.093,VALID,0,VALID,94.8734,VALID,0.107441,VALID,19.5858,VALID,164,VALID,0.0980469,
2013-12-25, 03:52:04,VALID,917.106,VALID,0,VALID,94.942,VALID,0.107441,VALID,19.5663,VALID,162,VALID,0,
2013-12-25, 03:53:04,VALID,917.093,VALID,0,VALID,94.9878,VALID,0.107441,VALID,19.5468,VALID,160,VALID,0,
2013-12-25, 03:54:04,VALID,917.122,VALID,0,VALID,95.0488,VALID,0.107441,VALID,19.5063,VALID,160,VALID,0,
2013-12-25, 03:55:04,VALID,917.094,VALID,0,VALID,95.0869,VALID,0,VALID,19.4883,VALID,160,VALID,0,